Year,Month,Day,Hour,Minute,Value (Times are PST for temperature in C)
2018,07,15,00,00,18.50
2018,07,15,00,01,18.40
2018,07,15,00,02,18.40
2018,07,15,00,03,18.40
2018,07,15,00,04,18.30
2018,07,15,00,05,18.30
2018,07,15,00,06,18.30
2018,07,15,00,07,18.30
2018,07,15,00,08,18.30
2018,07,15,00,09,18.20
2018,07,15,00,10,18.20
2018,07,15,00,11,18.20
2018,07,15,00,12,18.10
2018,07,15,00,13,18.10
2018,07,15,00,14,18.10
2018,07,15,00,15,18.10
2018,07,15,00,16,18.10
2018,07,15,00,17,18.10
2018,07,15,00,18,18.10
2018,07,15,00,19,18.10
2018,07,15,00,20,18.10
2018,07,15,00,21,18.00
2018,07,15,00,22,18.00
2018,07,15,00,23,18.00
2018,07,15,00,24,18.00
2018,07,15,00,25,18.00
2018,07,15,00,26,17.90
2018,07,15,00,27,17.90
2018,07,15,00,28,17.90
2018,07,15,00,29,17.90
2018,07,15,00,30,17.90
2018,07,15,00,31,17.80
2018,07,15,00,32,17.80
2018,07,15,00,33,17.80
2018,07,15,00,34,17.80
2018,07,15,00,35,17.80
2018,07,15,00,36,17.70
2018,07,15,00,37,17.70
2018,07,15,00,38,17.70
2018,07,15,00,39,17.70
2018,07,15,00,40,17.70
2018,07,15,00,41,17.60
2018,07,15,00,42,17.60
2018,07,15,00,43,17.60
2018,07,15,00,44,17.60
2018,07,15,00,45,17.60
2018,07,15,00,46,17.60
2018,07,15,00,47,17.50
2018,07,15,00,48,17.50
2018,07,15,00,49,17.40
2018,07,15,00,50,17.40
2018,07,15,00,51,17.40
2018,07,15,00,52,17.30
2018,07,15,00,53,17.30
2018,07,15,00,54,17.30
2018,07,15,00,55,17.30
2018,07,15,00,56,17.30
2018,07,15,00,57,17.30
2018,07,15,00,58,17.20
2018,07,15,00,59,17.20
2018,07,15,01,00,17.20
2018,07,15,01,01,17.20
2018,07,15,01,02,17.20
2018,07,15,01,03,17.20
2018,07,15,01,04,17.20
2018,07,15,01,05,17.20
2018,07,15,01,06,17.20
2018,07,15,01,07,17.20
2018,07,15,01,08,17.20
2018,07,15,01,09,17.20
2018,07,15,01,10,17.20
2018,07,15,01,11,17.20
2018,07,15,01,12,17.20
2018,07,15,01,13,17.20
2018,07,15,01,14,17.20
2018,07,15,01,15,17.20
2018,07,15,01,16,17.10
2018,07,15,01,17,17.10
2018,07,15,01,18,17.10
2018,07,15,01,19,17.10
2018,07,15,01,20,17.00
2018,07,15,01,21,17.00
2018,07,15,01,22,17.00
2018,07,15,01,23,16.90
2018,07,15,01,24,16.90
2018,07,15,01,25,16.90
2018,07,15,01,26,16.90
2018,07,15,01,27,16.90
2018,07,15,01,28,16.90
2018,07,15,01,29,16.80
2018,07,15,01,30,16.80
2018,07,15,01,31,16.80
2018,07,15,01,32,16.80
2018,07,15,01,33,16.80
2018,07,15,01,34,16.80
2018,07,15,01,35,16.80
2018,07,15,01,36,16.80
2018,07,15,01,37,16.80
2018,07,15,01,38,16.80
2018,07,15,01,39,16.80
2018,07,15,01,40,16.80
2018,07,15,01,41,16.80
2018,07,15,01,42,16.80
2018,07,15,01,43,16.80
2018,07,15,01,44,16.80
2018,07,15,01,45,16.80
2018,07,15,01,46,16.80
2018,07,15,01,47,16.80
2018,07,15,01,48,16.80
2018,07,15,01,49,16.70
2018,07,15,01,50,16.70
2018,07,15,01,51,16.70
2018,07,15,01,52,16.70
2018,07,15,01,53,16.70
2018,07,15,01,54,16.70
2018,07,15,01,55,16.70
2018,07,15,01,56,16.70
2018,07,15,01,57,16.70
2018,07,15,01,58,16.70
2018,07,15,01,59,16.70
2018,07,15,02,00,16.70
2018,07,15,02,01,16.70
2018,07,15,02,02,16.70
2018,07,15,02,03,16.70
2018,07,15,02,04,16.70
2018,07,15,02,05,16.70
2018,07,15,02,06,16.70
2018,07,15,02,07,16.70
2018,07,15,02,08,16.70
2018,07,15,02,09,16.60
2018,07,15,02,10,16.60
2018,07,15,02,11,16.60
2018,07,15,02,12,16.60
2018,07,15,02,13,16.60
2018,07,15,02,14,16.60
2018,07,15,02,15,16.50
2018,07,15,02,16,16.50
2018,07,15,02,17,16.50
2018,07,15,02,18,16.50
2018,07,15,02,19,16.50
2018,07,15,02,20,16.40
2018,07,15,02,21,16.40
2018,07,15,02,22,16.40
2018,07,15,02,23,16.40
2018,07,15,02,24,16.40
2018,07,15,02,25,16.40
2018,07,15,02,26,16.40
2018,07,15,02,27,16.30
2018,07,15,02,28,16.30
2018,07,15,02,29,16.30
2018,07,15,02,30,16.30
2018,07,15,02,31,16.30
2018,07,15,02,32,16.30
2018,07,15,02,33,16.30
2018,07,15,02,34,16.30
2018,07,15,02,35,16.30
2018,07,15,02,36,16.30
2018,07,15,02,37,16.30
2018,07,15,02,38,16.30
2018,07,15,02,39,16.30
2018,07,15,02,40,16.30
2018,07,15,02,41,16.30
2018,07,15,02,42,16.30
2018,07,15,02,43,16.20
2018,07,15,02,44,16.20
2018,07,15,02,45,16.20
2018,07,15,02,46,16.20
2018,07,15,02,47,16.20
2018,07,15,02,48,16.10
2018,07,15,02,49,16.10
2018,07,15,02,50,16.10
2018,07,15,02,51,16.10
2018,07,15,02,52,16.10
2018,07,15,02,53,16.10
2018,07,15,02,54,16.10
2018,07,15,02,55,16.10
2018,07,15,02,56,16.10
2018,07,15,02,57,16.00
2018,07,15,02,58,16.00
2018,07,15,02,59,16.00
2018,07,15,03,00,16.00
2018,07,15,03,01,16.00
2018,07,15,03,02,16.00
2018,07,15,03,03,16.00
2018,07,15,03,04,16.00
2018,07,15,03,05,16.00
2018,07,15,03,06,16.00
2018,07,15,03,07,16.00
2018,07,15,03,08,16.00
2018,07,15,03,09,16.00
2018,07,15,03,10,16.00
2018,07,15,03,11,16.00
2018,07,15,03,12,16.00
2018,07,15,03,13,16.00
2018,07,15,03,14,16.00
2018,07,15,03,15,15.90
2018,07,15,03,16,15.90
2018,07,15,03,17,15.90
2018,07,15,03,18,15.90
2018,07,15,03,19,15.90
2018,07,15,03,20,15.80
2018,07,15,03,21,15.80
2018,07,15,03,22,15.80
2018,07,15,03,23,15.80
2018,07,15,03,24,15.80
2018,07,15,03,25,15.80
2018,07,15,03,26,15.80
2018,07,15,03,27,15.80
2018,07,15,03,28,15.80
2018,07,15,03,29,15.80
2018,07,15,03,30,15.80
2018,07,15,03,31,15.80
2018,07,15,03,32,15.70
2018,07,15,03,33,15.70
2018,07,15,03,34,15.70
2018,07,15,03,35,15.70
2018,07,15,03,36,15.70
2018,07,15,03,37,15.70
2018,07,15,03,38,15.70
2018,07,15,03,39,15.70
2018,07,15,03,40,15.70
2018,07,15,03,41,15.60
2018,07,15,03,42,15.60
2018,07,15,03,43,15.60
2018,07,15,03,44,15.60
2018,07,15,03,45,15.60
2018,07,15,03,46,15.60
2018,07,15,03,47,15.60
2018,07,15,03,48,15.60
2018,07,15,03,49,15.60
2018,07,15,03,50,15.60
2018,07,15,03,51,15.60
2018,07,15,03,52,15.60
2018,07,15,03,53,15.60
2018,07,15,03,54,15.60
2018,07,15,03,55,15.60
2018,07,15,03,56,15.60
2018,07,15,03,57,15.50
2018,07,15,03,58,15.50
2018,07,15,03,59,15.50
2018,07,15,04,00,15.50
2018,07,15,04,01,15.50
2018,07,15,04,02,15.50
2018,07,15,04,03,15.50
2018,07,15,04,04,15.50
2018,07,15,04,05,15.50
2018,07,15,04,06,15.50
2018,07,15,04,07,15.50
2018,07,15,04,08,15.50
2018,07,15,04,09,15.40
2018,07,15,04,10,15.40
2018,07,15,04,11,15.40
2018,07,15,04,12,15.40
2018,07,15,04,13,15.40
2018,07,15,04,14,15.40
2018,07,15,04,15,15.40
2018,07,15,04,16,15.40
2018,07,15,04,17,15.40
2018,07,15,04,18,15.40
2018,07,15,04,19,15.40
2018,07,15,04,20,15.40
2018,07,15,04,21,15.40
2018,07,15,04,22,15.40
2018,07,15,04,23,15.40
2018,07,15,04,24,15.40
2018,07,15,04,25,15.40
2018,07,15,04,26,15.40
2018,07,15,04,27,15.40
2018,07,15,04,28,15.40
2018,07,15,04,29,15.40
2018,07,15,04,30,15.40
2018,07,15,04,31,15.30
2018,07,15,04,32,15.30
2018,07,15,04,33,15.30
2018,07,15,04,34,15.30
2018,07,15,04,35,15.30
2018,07,15,04,36,15.30
2018,07,15,04,37,15.30
2018,07,15,04,38,15.30
2018,07,15,04,39,15.30
2018,07,15,04,40,15.30
2018,07,15,04,41,15.30
2018,07,15,04,42,15.30
2018,07,15,04,43,15.30
2018,07,15,04,44,15.20
2018,07,15,04,45,15.20
2018,07,15,04,46,15.20
2018,07,15,04,47,15.20
2018,07,15,04,48,15.20
2018,07,15,04,49,15.10
2018,07,15,04,50,15.10
2018,07,15,04,51,15.10
2018,07,15,04,52,15.10
2018,07,15,04,53,15.10
2018,07,15,04,54,15.10
2018,07,15,04,55,15.10
2018,07,15,04,56,15.10
2018,07,15,04,57,15.10
2018,07,15,04,58,15.10
2018,07,15,04,59,15.10
2018,07,15,05,00,15.10
2018,07,15,05,01,15.00
2018,07,15,05,02,15.00
2018,07,15,05,03,15.00
2018,07,15,05,04,15.00
2018,07,15,05,05,15.00
2018,07,15,05,06,15.00
2018,07,15,05,07,15.00
2018,07,15,05,08,15.00
2018,07,15,05,09,15.00
2018,07,15,05,10,15.00
2018,07,15,05,11,15.00
2018,07,15,05,12,15.00
2018,07,15,05,13,15.00
2018,07,15,05,14,15.00
2018,07,15,05,15,15.00
2018,07,15,05,16,15.00
2018,07,15,05,17,15.00
2018,07,15,05,18,15.00
2018,07,15,05,19,15.00
2018,07,15,05,20,15.00
2018,07,15,05,21,15.00
2018,07,15,05,22,15.00
2018,07,15,05,23,15.00
2018,07,15,05,24,15.00
2018,07,15,05,25,15.00
2018,07,15,05,26,15.00
2018,07,15,05,27,15.00
2018,07,15,05,28,15.00
2018,07,15,05,29,15.00
2018,07,15,05,30,15.00
2018,07,15,05,31,15.00
2018,07,15,05,32,15.00
2018,07,15,05,33,15.00
2018,07,15,05,34,15.00
2018,07,15,05,35,15.00
2018,07,15,05,36,15.00
2018,07,15,05,37,15.00
2018,07,15,05,38,15.00
2018,07,15,05,39,15.00
2018,07,15,05,40,15.00
2018,07,15,05,41,15.00
2018,07,15,05,42,15.00
2018,07,15,05,43,15.00
2018,07,15,05,44,15.00
2018,07,15,05,45,15.00
2018,07,15,05,46,15.00
2018,07,15,05,47,15.00
2018,07,15,05,48,15.00
2018,07,15,05,49,15.00
2018,07,15,05,50,15.00
2018,07,15,05,51,15.00
2018,07,15,05,52,15.00
2018,07,15,05,53,15.00
2018,07,15,05,54,15.00
2018,07,15,05,55,15.00
2018,07,15,05,56,15.00
2018,07,15,05,57,15.00
2018,07,15,05,58,15.00
2018,07,15,05,59,15.00
2018,07,15,06,00,15.00
2018,07,15,06,01,15.00
2018,07,15,06,02,15.00
2018,07,15,06,03,15.00
2018,07,15,06,04,15.00
2018,07,15,06,05,15.00
2018,07,15,06,06,15.00
2018,07,15,06,07,15.00
2018,07,15,06,08,15.00
2018,07,15,06,09,15.00
2018,07,15,06,10,15.00
2018,07,15,06,11,15.00
2018,07,15,06,12,15.00
2018,07,15,06,13,15.00
2018,07,15,06,14,15.00
2018,07,15,06,15,15.00
2018,07,15,06,16,15.00
2018,07,15,06,17,15.00
2018,07,15,06,18,15.00
2018,07,15,06,19,15.00
2018,07,15,06,20,15.00
2018,07,15,06,21,15.00
2018,07,15,06,22,15.00
2018,07,15,06,23,15.00
2018,07,15,06,24,15.00
2018,07,15,06,25,15.00
2018,07,15,06,26,15.00
2018,07,15,06,27,15.00
2018,07,15,06,28,15.00
2018,07,15,06,29,15.00
2018,07,15,06,30,15.00
2018,07,15,06,31,15.00
2018,07,15,06,32,15.00
2018,07,15,06,33,15.00
2018,07,15,06,34,15.00
2018,07,15,06,35,15.00
2018,07,15,06,36,15.00
2018,07,15,06,37,15.00
2018,07,15,06,38,15.00
2018,07,15,06,39,15.00
2018,07,15,06,40,15.00
2018,07,15,06,41,15.00
2018,07,15,06,42,15.00
2018,07,15,06,43,15.00
2018,07,15,06,44,15.00
2018,07,15,06,45,15.00
2018,07,15,06,46,15.00
2018,07,15,06,47,15.00
2018,07,15,06,48,15.00
2018,07,15,06,49,15.00
2018,07,15,06,50,15.00
2018,07,15,06,51,15.10
2018,07,15,06,52,15.10
2018,07,15,06,53,15.10
2018,07,15,06,54,15.20
2018,07,15,06,55,15.20
2018,07,15,06,56,15.20
2018,07,15,06,57,15.20
2018,07,15,06,58,15.20
2018,07,15,06,59,15.30
2018,07,15,07,00,15.30
2018,07,15,07,01,15.30
2018,07,15,07,02,15.30
2018,07,15,07,03,15.40
2018,07,15,07,04,15.40
2018,07,15,07,05,15.50
2018,07,15,07,06,15.60
2018,07,15,07,07,15.70
2018,07,15,07,08,15.80
2018,07,15,07,09,15.90
2018,07,15,07,10,16.00
2018,07,15,07,11,16.10
2018,07,15,07,12,16.20
2018,07,15,07,13,16.30
2018,07,15,07,14,16.50
2018,07,15,07,15,16.60
2018,07,15,07,16,16.70
2018,07,15,07,17,16.90
2018,07,15,07,18,17.00
2018,07,15,07,19,17.10
2018,07,15,07,20,17.30
2018,07,15,07,21,17.40
2018,07,15,07,22,17.50
2018,07,15,07,23,17.60
2018,07,15,07,24,17.70
2018,07,15,07,25,17.80
2018,07,15,07,26,18.00
2018,07,15,07,27,18.10
2018,07,15,07,28,18.30
2018,07,15,07,29,18.40
2018,07,15,07,30,18.50
2018,07,15,07,31,18.60
2018,07,15,07,32,18.70
2018,07,15,07,33,18.80
2018,07,15,07,34,18.90
2018,07,15,07,35,18.90
2018,07,15,07,36,19.00
2018,07,15,07,37,19.00
2018,07,15,07,38,19.10
2018,07,15,07,39,19.20
2018,07,15,07,40,19.30
2018,07,15,07,41,19.30
2018,07,15,07,42,19.40
2018,07,15,07,43,19.60
2018,07,15,07,44,19.70
2018,07,15,07,45,19.80
2018,07,15,07,46,19.90
2018,07,15,07,47,20.00
2018,07,15,07,48,20.20
2018,07,15,07,49,20.30
2018,07,15,07,50,20.30
2018,07,15,07,51,20.30
2018,07,15,07,52,20.30
2018,07,15,07,53,20.30
2018,07,15,07,54,20.30
2018,07,15,07,55,20.30
2018,07,15,07,56,20.30
2018,07,15,07,57,20.30
2018,07,15,07,58,20.30
2018,07,15,07,59,20.30
2018,07,15,08,00,20.20
2018,07,15,08,01,20.20
2018,07,15,08,02,20.10
2018,07,15,08,03,20.10
2018,07,15,08,04,20.00
2018,07,15,08,05,20.00
2018,07,15,08,06,19.90
2018,07,15,08,07,19.90
2018,07,15,08,08,19.90
2018,07,15,08,09,20.00
2018,07,15,08,10,20.00
2018,07,15,08,11,20.00
2018,07,15,08,12,20.10
2018,07,15,08,13,20.10
2018,07,15,08,14,20.10
2018,07,15,08,15,20.20
2018,07,15,08,16,20.20
2018,07,15,08,17,20.30
2018,07,15,08,18,20.30
2018,07,15,08,19,20.40
2018,07,15,08,20,20.50
2018,07,15,08,21,20.50
2018,07,15,08,22,20.70
2018,07,15,08,23,20.80
2018,07,15,08,24,20.90
2018,07,15,08,25,21.00
2018,07,15,08,26,21.10
2018,07,15,08,27,21.10
2018,07,15,08,28,21.20
2018,07,15,08,29,21.30
2018,07,15,08,30,21.30
2018,07,15,08,31,21.30
2018,07,15,08,32,21.40
2018,07,15,08,33,21.40
2018,07,15,08,34,21.40
2018,07,15,08,35,21.40
2018,07,15,08,36,21.40
2018,07,15,08,37,21.40
2018,07,15,08,38,21.50
2018,07,15,08,39,21.50
2018,07,15,08,40,21.50
2018,07,15,08,41,21.60
2018,07,15,08,42,21.60
2018,07,15,08,43,21.70
2018,07,15,08,44,21.70
2018,07,15,08,45,21.80
2018,07,15,08,46,21.80
2018,07,15,08,47,21.90
2018,07,15,08,48,22.00
2018,07,15,08,49,22.10
2018,07,15,08,50,22.10
2018,07,15,08,51,22.20
2018,07,15,08,52,22.20
2018,07,15,08,53,22.30
2018,07,15,08,54,22.40
2018,07,15,08,55,22.40
2018,07,15,08,56,22.50
2018,07,15,08,57,22.50
2018,07,15,08,58,22.60
2018,07,15,08,59,22.70
2018,07,15,09,00,22.70
2018,07,15,09,01,22.80
2018,07,15,09,02,22.80
2018,07,15,09,03,22.90
2018,07,15,09,04,22.90
2018,07,15,09,05,23.00
2018,07,15,09,06,23.10
2018,07,15,09,07,23.10
2018,07,15,09,08,23.10
2018,07,15,09,09,23.20
2018,07,15,09,10,23.20
2018,07,15,09,11,23.20
2018,07,15,09,12,23.10
2018,07,15,09,13,23.10
2018,07,15,09,14,23.10
2018,07,15,09,15,23.10
2018,07,15,09,16,23.10
2018,07,15,09,17,23.10
2018,07,15,09,18,23.10
2018,07,15,09,19,23.10
2018,07,15,09,20,23.10
2018,07,15,09,21,23.10
2018,07,15,09,22,23.10
2018,07,15,09,23,23.10
2018,07,15,09,24,23.10
2018,07,15,09,25,23.20
2018,07,15,09,26,23.20
2018,07,15,09,27,23.20
2018,07,15,09,28,23.30
2018,07,15,09,29,23.30
2018,07,15,09,30,23.40
2018,07,15,09,31,23.50
2018,07,15,09,32,23.50
2018,07,15,09,33,23.60
2018,07,15,09,34,23.60
2018,07,15,09,35,23.70
2018,07,15,09,36,23.70
2018,07,15,09,37,23.80
2018,07,15,09,38,23.80
2018,07,15,09,39,23.90
2018,07,15,09,40,23.90
2018,07,15,09,41,24.00
2018,07,15,09,42,24.00
2018,07,15,09,43,24.10
2018,07,15,09,44,24.10
2018,07,15,09,45,24.10
2018,07,15,09,46,24.20
2018,07,15,09,47,24.20
2018,07,15,09,48,24.20
2018,07,15,09,49,24.20
2018,07,15,09,50,24.20
2018,07,15,09,51,24.30
2018,07,15,09,52,24.30
2018,07,15,09,53,24.30
2018,07,15,09,54,24.30
2018,07,15,09,55,24.40
2018,07,15,09,56,24.40
2018,07,15,09,57,24.40
2018,07,15,09,58,24.40
2018,07,15,09,59,24.40
2018,07,15,10,00,24.30
2018,07,15,10,01,24.30
2018,07,15,10,02,24.30
2018,07,15,10,03,24.30
2018,07,15,10,04,24.30
2018,07,15,10,05,24.30
2018,07,15,10,06,24.40
2018,07,15,10,07,24.40
2018,07,15,10,08,24.40
2018,07,15,10,09,24.40
2018,07,15,10,10,24.50
2018,07,15,10,11,24.50
2018,07,15,10,12,24.60
2018,07,15,10,13,24.60
2018,07,15,10,14,24.60
2018,07,15,10,15,24.60
2018,07,15,10,16,24.70
2018,07,15,10,17,24.70
2018,07,15,10,18,24.70
2018,07,15,10,19,24.80
2018,07,15,10,20,24.80
2018,07,15,10,21,24.80
2018,07,15,10,22,24.80
2018,07,15,10,23,24.80
2018,07,15,10,24,24.80
2018,07,15,10,25,24.80
2018,07,15,10,26,24.90
2018,07,15,10,27,24.90
2018,07,15,10,28,24.90
2018,07,15,10,29,24.90
2018,07,15,10,30,24.90
2018,07,15,10,31,24.90
2018,07,15,10,32,25.00
2018,07,15,10,33,25.10
2018,07,15,10,34,25.10
2018,07,15,10,35,25.10
2018,07,15,10,36,25.20
2018,07,15,10,37,25.20
2018,07,15,10,38,25.30
2018,07,15,10,39,25.40
2018,07,15,10,40,25.40
2018,07,15,10,41,25.40
2018,07,15,10,42,25.40
2018,07,15,10,43,25.40
2018,07,15,10,44,25.40
2018,07,15,10,45,25.50
2018,07,15,10,46,25.60
2018,07,15,10,47,25.60
2018,07,15,10,48,25.60
2018,07,15,10,49,25.60
2018,07,15,10,50,25.60
2018,07,15,10,51,25.60
2018,07,15,10,52,25.60
2018,07,15,10,53,25.70
2018,07,15,10,54,25.70
2018,07,15,10,55,25.70
2018,07,15,10,56,25.70
2018,07,15,10,57,25.80
2018,07,15,10,58,25.80
2018,07,15,10,59,25.90
2018,07,15,11,00,25.90
2018,07,15,11,01,25.90
2018,07,15,11,02,25.90
2018,07,15,11,03,25.90
2018,07,15,11,04,25.90
2018,07,15,11,05,25.90
2018,07,15,11,06,26.00
2018,07,15,11,07,26.00
2018,07,15,11,08,26.00
2018,07,15,11,09,26.00
2018,07,15,11,10,26.00
2018,07,15,11,11,25.90
2018,07,15,11,12,25.90
2018,07,15,11,13,25.90
2018,07,15,11,14,25.90
2018,07,15,11,15,26.00
2018,07,15,11,16,26.00
2018,07,15,11,17,26.00
2018,07,15,11,18,26.10
2018,07,15,11,19,26.10
2018,07,15,11,20,26.10
2018,07,15,11,21,26.10
2018,07,15,11,22,26.10
2018,07,15,11,23,26.10
2018,07,15,11,24,26.20
2018,07,15,11,25,26.30
2018,07,15,11,26,26.30
2018,07,15,11,27,26.40
2018,07,15,11,28,26.40
2018,07,15,11,29,26.50
2018,07,15,11,30,26.60
2018,07,15,11,31,26.60
2018,07,15,11,32,26.60
2018,07,15,11,33,26.70
2018,07,15,11,34,26.70
2018,07,15,11,35,26.80
2018,07,15,11,36,26.90
2018,07,15,11,37,26.90
2018,07,15,11,38,26.90
2018,07,15,11,39,26.90
2018,07,15,11,40,26.80
2018,07,15,11,41,26.80
2018,07,15,11,42,26.80
2018,07,15,11,43,26.80
2018,07,15,11,44,26.80
2018,07,15,11,45,26.90
2018,07,15,11,46,26.90
2018,07,15,11,47,26.80
2018,07,15,11,48,26.80
2018,07,15,11,49,26.80
2018,07,15,11,50,26.70
2018,07,15,11,51,26.70
2018,07,15,11,52,26.60
2018,07,15,11,53,26.60
2018,07,15,11,54,26.60
2018,07,15,11,55,26.60
2018,07,15,11,56,26.60
2018,07,15,11,57,26.60
2018,07,15,11,58,26.70
2018,07,15,11,59,26.80
2018,07,15,12,00,26.80
2018,07,15,12,01,26.80
2018,07,15,12,02,26.90
2018,07,15,12,03,26.90
2018,07,15,12,04,26.90
2018,07,15,12,05,26.90
2018,07,15,12,06,27.00
2018,07,15,12,07,26.90
2018,07,15,12,08,26.90
2018,07,15,12,09,26.90
2018,07,15,12,10,26.90
2018,07,15,12,11,26.90
2018,07,15,12,12,27.00
2018,07,15,12,13,27.00
2018,07,15,12,14,27.10
2018,07,15,12,15,27.10
2018,07,15,12,16,27.10
2018,07,15,12,17,27.20
2018,07,15,12,18,27.20
2018,07,15,12,19,27.30
2018,07,15,12,20,27.30
2018,07,15,12,21,27.30
2018,07,15,12,22,27.30
2018,07,15,12,23,27.30
2018,07,15,12,24,27.30
2018,07,15,12,25,27.30
2018,07,15,12,26,27.30
2018,07,15,12,27,27.30
2018,07,15,12,28,27.30
2018,07,15,12,29,27.30
2018,07,15,12,30,27.20
2018,07,15,12,31,27.20
2018,07,15,12,32,27.10
2018,07,15,12,33,27.20
2018,07,15,12,34,27.20
2018,07,15,12,35,27.20
2018,07,15,12,36,27.30
2018,07,15,12,37,27.30
2018,07,15,12,38,27.40
2018,07,15,12,39,27.40
2018,07,15,12,40,27.50
2018,07,15,12,41,27.50
2018,07,15,12,42,27.60
2018,07,15,12,43,27.70
2018,07,15,12,44,27.70
2018,07,15,12,45,27.70
2018,07,15,12,46,27.70
2018,07,15,12,47,27.70
2018,07,15,12,48,27.70
2018,07,15,12,49,27.60
2018,07,15,12,50,27.60
2018,07,15,12,51,27.60
2018,07,15,12,52,27.60
2018,07,15,12,53,27.70
2018,07,15,12,54,27.70
2018,07,15,12,55,27.70
2018,07,15,12,56,27.80
2018,07,15,12,57,27.80
2018,07,15,12,58,27.90
2018,07,15,12,59,27.90
2018,07,15,13,00,27.90
2018,07,15,13,01,28.00
2018,07,15,13,02,28.10
2018,07,15,13,03,28.10
2018,07,15,13,04,28.10
2018,07,15,13,05,28.20
2018,07,15,13,06,28.20
2018,07,15,13,07,28.30
2018,07,15,13,08,28.30
2018,07,15,13,09,28.30
2018,07,15,13,10,28.30
2018,07,15,13,11,28.30
2018,07,15,13,12,28.30
2018,07,15,13,13,28.20
2018,07,15,13,14,28.30
2018,07,15,13,15,28.20
2018,07,15,13,16,28.30
2018,07,15,13,17,28.30
2018,07,15,13,18,28.30
2018,07,15,13,19,28.40
2018,07,15,13,20,28.40
2018,07,15,13,21,28.40
2018,07,15,13,22,28.40
2018,07,15,13,23,28.40
2018,07,15,13,24,28.40
2018,07,15,13,25,28.40
2018,07,15,13,26,28.40
2018,07,15,13,27,28.40
2018,07,15,13,28,28.40
2018,07,15,13,29,28.50
2018,07,15,13,30,28.60
2018,07,15,13,31,28.60
2018,07,15,13,32,28.60
2018,07,15,13,33,28.60
2018,07,15,13,34,28.50
2018,07,15,13,35,28.50
2018,07,15,13,36,28.40
2018,07,15,13,37,28.40
2018,07,15,13,38,28.40
2018,07,15,13,39,28.40
2018,07,15,13,40,28.40
2018,07,15,13,41,28.50
2018,07,15,13,42,28.50
2018,07,15,13,43,28.60
2018,07,15,13,44,28.60
2018,07,15,13,45,28.50
2018,07,15,13,46,28.40
2018,07,15,13,47,28.30
2018,07,15,13,48,28.20
2018,07,15,13,49,28.20
2018,07,15,13,50,28.20
2018,07,15,13,51,28.10
2018,07,15,13,52,28.20
2018,07,15,13,53,28.20
2018,07,15,13,54,28.30
2018,07,15,13,55,28.40
2018,07,15,13,56,28.40
2018,07,15,13,57,28.50
2018,07,15,13,58,28.60
2018,07,15,13,59,28.60
2018,07,15,14,00,28.60
2018,07,15,14,01,28.60
2018,07,15,14,02,28.70
2018,07,15,14,03,28.70
2018,07,15,14,04,28.70
2018,07,15,14,05,28.70
2018,07,15,14,06,28.70
2018,07,15,14,07,28.70
2018,07,15,14,08,28.70
2018,07,15,14,09,28.80
2018,07,15,14,10,28.80
2018,07,15,14,11,28.90
2018,07,15,14,12,28.90
2018,07,15,14,13,28.90
2018,07,15,14,14,28.90
2018,07,15,14,15,29.00
2018,07,15,14,16,29.00
2018,07,15,14,17,29.10
2018,07,15,14,18,29.10
2018,07,15,14,19,29.10
2018,07,15,14,20,29.20
2018,07,15,14,21,29.10
2018,07,15,14,22,29.00
2018,07,15,14,23,28.80
2018,07,15,14,24,28.70
2018,07,15,14,25,28.70
2018,07,15,14,26,28.70
2018,07,15,14,27,28.70
2018,07,15,14,28,28.70
2018,07,15,14,29,28.60
2018,07,15,14,30,28.50
2018,07,15,14,31,28.50
2018,07,15,14,32,28.60
2018,07,15,14,33,28.60
2018,07,15,14,34,28.70
2018,07,15,14,35,28.70
2018,07,15,14,36,28.70
2018,07,15,14,37,28.70
2018,07,15,14,38,28.60
2018,07,15,14,39,28.60
2018,07,15,14,40,28.70
2018,07,15,14,41,28.70
2018,07,15,14,42,28.70
2018,07,15,14,43,28.80
2018,07,15,14,44,28.80
2018,07,15,14,45,28.90
2018,07,15,14,46,28.90
2018,07,15,14,47,28.80
2018,07,15,14,48,28.80
2018,07,15,14,49,28.80
2018,07,15,14,50,28.80
2018,07,15,14,51,28.80
2018,07,15,14,52,28.80
2018,07,15,14,53,28.80
2018,07,15,14,54,28.70
2018,07,15,14,55,28.70
2018,07,15,14,56,28.70
2018,07,15,14,57,28.70
2018,07,15,14,58,28.70
2018,07,15,14,59,28.70
2018,07,15,15,00,28.70
2018,07,15,15,01,28.80
2018,07,15,15,02,28.80
2018,07,15,15,03,28.80
2018,07,15,15,04,28.90
2018,07,15,15,05,28.90
2018,07,15,15,06,28.90
2018,07,15,15,07,28.90
2018,07,15,15,08,29.00
2018,07,15,15,09,29.10
2018,07,15,15,10,29.10
2018,07,15,15,11,29.20
2018,07,15,15,12,29.20
2018,07,15,15,13,29.20
2018,07,15,15,14,29.20
2018,07,15,15,15,29.30
2018,07,15,15,16,29.30
2018,07,15,15,17,29.30
2018,07,15,15,18,29.30
2018,07,15,15,19,29.40
2018,07,15,15,20,29.50
2018,07,15,15,21,29.60
2018,07,15,15,22,29.60
2018,07,15,15,23,29.70
2018,07,15,15,24,29.80
2018,07,15,15,25,29.90
2018,07,15,15,26,30.00
2018,07,15,15,27,30.10
2018,07,15,15,28,30.00
2018,07,15,15,29,29.90
2018,07,15,15,30,29.80
2018,07,15,15,31,29.70
2018,07,15,15,32,29.70
2018,07,15,15,33,29.60
2018,07,15,15,34,29.50
2018,07,15,15,35,29.50
2018,07,15,15,36,29.40
2018,07,15,15,37,29.50
2018,07,15,15,38,29.50
2018,07,15,15,39,29.50
2018,07,15,15,40,29.60
2018,07,15,15,41,29.60
2018,07,15,15,42,29.70
2018,07,15,15,43,29.80
2018,07,15,15,44,29.80
2018,07,15,15,45,29.90
2018,07,15,15,46,29.90
2018,07,15,15,47,29.90
2018,07,15,15,48,29.90
2018,07,15,15,49,30.00
2018,07,15,15,50,30.00
2018,07,15,15,51,30.10
2018,07,15,15,52,30.20
2018,07,15,15,53,30.40
2018,07,15,15,54,30.50
2018,07,15,15,55,30.50
2018,07,15,15,56,30.60
2018,07,15,15,57,30.60
2018,07,15,15,58,30.60
2018,07,15,15,59,30.70
2018,07,15,16,00,30.80
2018,07,15,16,01,30.90
2018,07,15,16,02,31.00
2018,07,15,16,03,31.10
2018,07,15,16,04,31.20
2018,07,15,16,05,31.40
2018,07,15,16,06,31.40
2018,07,15,16,07,31.50
2018,07,15,16,08,31.50
2018,07,15,16,09,31.60
2018,07,15,16,10,31.60
2018,07,15,16,11,31.60
2018,07,15,16,12,31.60
2018,07,15,16,13,31.70
2018,07,15,16,14,31.80
2018,07,15,16,15,31.80
2018,07,15,16,16,31.80
2018,07,15,16,17,31.90
2018,07,15,16,18,31.90
2018,07,15,16,19,31.90
2018,07,15,16,20,31.80
2018,07,15,16,21,31.80
2018,07,15,16,22,31.80
2018,07,15,16,23,31.70
2018,07,15,16,24,31.70
2018,07,15,16,25,31.70
2018,07,15,16,26,31.70
2018,07,15,16,27,31.60
2018,07,15,16,28,31.50
2018,07,15,16,29,31.40
2018,07,15,16,30,31.40
2018,07,15,16,31,31.40
2018,07,15,16,32,31.30
2018,07,15,16,33,31.30
2018,07,15,16,34,31.20
2018,07,15,16,35,31.30
2018,07,15,16,36,31.30
2018,07,15,16,37,31.30
2018,07,15,16,38,31.30
2018,07,15,16,39,31.30
2018,07,15,16,40,31.40
2018,07,15,16,41,31.40
2018,07,15,16,42,31.50
2018,07,15,16,43,31.60
2018,07,15,16,44,31.70
2018,07,15,16,45,31.70
2018,07,15,16,46,31.70
2018,07,15,16,47,31.70
2018,07,15,16,48,31.60
2018,07,15,16,49,31.50
2018,07,15,16,50,31.40
2018,07,15,16,51,31.30
2018,07,15,16,52,31.30
2018,07,15,16,53,31.30
2018,07,15,16,54,31.20
2018,07,15,16,55,31.20
2018,07,15,16,56,31.20
2018,07,15,16,57,31.20
2018,07,15,16,58,31.20
2018,07,15,16,59,31.10
2018,07,15,17,00,31.10
2018,07,15,17,01,31.10
2018,07,15,17,02,31.00
2018,07,15,17,03,31.10
2018,07,15,17,04,31.10
2018,07,15,17,05,31.10
2018,07,15,17,06,31.20
2018,07,15,17,07,31.20
2018,07,15,17,08,31.20
2018,07,15,17,09,31.30
2018,07,15,17,10,31.30
2018,07,15,17,11,31.30
2018,07,15,17,12,31.20
2018,07,15,17,13,31.20
2018,07,15,17,14,31.10
2018,07,15,17,15,31.20
2018,07,15,17,16,31.20
2018,07,15,17,17,31.20
2018,07,15,17,18,31.20
2018,07,15,17,19,31.30